| time (UTC) | temp F | wind direction | speed MPH | gust MPH | rain 1hr in | rain 24hr in | rain mn in | humidity % | barometer mb |
| 20260505223622 | 51 | 32 | 3.0 | 4.0 | 0.00 | 1.19 | 1.19 | 91 | 1009.0 |
| 20260505223118 | 52 | 35 | 4.0 | 5.0 | 0.00 | 1.19 | 1.19 | 91 | 1009.1 |
| 20260505222615 | 52 | 105 | 4.0 | 4.0 | 0.00 | 1.19 | 1.19 | 90 | 1009.1 |
| 20260505222111 | 52 | 67 | 2.0 | 6.0 | 0.00 | 1.19 | 1.19 | 90 | 1008.8 |
| 20260505221608 | 53 | 31 | 1.0 | 3.0 | 0.00 | 1.19 | 1.19 | 90 | 1008.7 |
| 20260505221104 | 53 | 335 | 2.0 | 5.0 | 0.00 | 1.19 | 1.19 | 90 | 1008.5 |
| 20260505220602 | 53 | 51 | 2.0 | 5.0 | 0.00 | 1.19 | 1.19 | 90 | 1008.7 |
| 20260505220100 | 53 | 336 | 0.0 | 5.0 | 0.00 | 1.19 | 1.19 | 89 | 1008.4 |
| 20260505215557 | 53 | 333 | 2.0 | 4.0 | 0.00 | 1.19 | 1.19 | 89 | 1008.1 |
| 20260505215055 | 53 | 93 | 2.0 | 4.0 | 0.00 | 1.19 | 1.19 | 89 | 1008.5 |
| 20260505214553 | 53 | 93 | 2.0 | 4.0 | 0.00 | 1.19 | 1.19 | 89 | 1008.5 |
| 20260505214050 | 53 | 51 | 0.0 | 5.0 | 0.00 | 1.19 | 1.19 | 89 | 1008.4 |
| 20260505213548 | 54 | 98 | 4.0 | 4.0 | 0.00 | 1.19 | 1.19 | 89 | 1008.7 |
| 20260505213043 | 54 | 340 | 1.0 | 4.0 | 0.00 | 1.19 | 1.19 | 88 | 1008.9 |
| 20260505212540 | 54 | 125 | 2.0 | 6.0 | 0.00 | 1.19 | 1.19 | 88 | 1008.7 |
| 20260505212038 | 55 | 30 | 2.0 | 4.0 | 0.00 | 1.19 | 1.19 | 88 | 1008.2 |
| 20260505211534 | 55 | 316 | 3.0 | 4.0 | 0.00 | 1.19 | 1.19 | 88 | 1008.2 |
| 20260505211031 | 55 | 202 | 2.0 | 4.0 | 0.00 | 1.19 | 1.19 | 89 | 1008.1 |
| 20260505210528 | 55 | 63 | 0.0 | 3.0 | 0.00 | 1.19 | 1.19 | 89 | 1008.1 |
| 20260505210025 | 55 | 230 | 2.0 | 3.0 | 0.00 | 1.19 | 1.19 | 89 | 1008.3 |
| 20260505205523 | 55 | 243 | 2.0 | 4.0 | 0.00 | 1.19 | 1.19 | 89 | 1008.2 |
| 20260505205020 | 56 | 347 | 0.0 | 8.0 | 0.00 | 1.19 | 1.19 | 89 | 1008.0 |
| 20260505204518 | 56 | 64 | 2.0 | 8.0 | 0.00 | 1.19 | 1.19 | 89 | 1008.1 |
| 20260505204015 | 56 | 102 | 2.0 | 4.0 | 0.00 | 1.19 | 1.19 | 89 | 1008.1 |
| 20260505203511 | 56 | 1 | 1.0 | 4.0 | 0.00 | 1.19 | 1.19 | 89 | 1008.1 |
| 20260505203008 | 56 | 2 | 2.0 | 4.0 | 0.00 | 1.19 | 1.19 | 89 | 1008.2 |
| 20260505202504 | 56 | 217 | 3.0 | 4.0 | 0.00 | 1.19 | 1.19 | 89 | 1008.2 |
| 20260505202000 | 57 | 105 | 3.0 | 4.0 | 0.00 | 1.19 | 1.19 | 89 | 1008.3 |
| 20260505201457 | 57 | 57 | 1.0 | 6.0 | 0.00 | 1.19 | 1.19 | 89 | 1008.1 |
| 20260505200955 | 57 | 128 | 0.0 | 3.0 | 0.02 | 1.19 | 1.19 | 91 | 1007.9 |
| 20260505200453 | 56 | 70 | 1.0 | 4.0 | 0.02 | 1.19 | 1.19 | 90 | 1008.0 |
| 20260505195948 | 56 | 96 | 2.0 | 4.0 | 0.00 | 1.19 | 1.19 | 90 | 1008.2 |
| 20260505195445 | 56 | 112 | 1.0 | 5.0 | 0.00 | 1.19 | 1.19 | 91 | 1008.1 |
| 20260505194943 | 56 | 28 | 1.0 | 6.0 | 0.00 | 1.19 | 1.19 | 90 | 1008.8 |
| 20260505194440 | 57 | 29 | 1.0 | 4.0 | 0.00 | 1.19 | 1.19 | 91 | 1008.5 |
| 20260505193940 | 57 | 315 | 2.0 | 4.0 | 0.00 | 1.19 | 1.19 | 91 | 1008.4 |
| 20260505193438 | 57 | 17 | 2.0 | 3.0 | 0.00 | 1.19 | 1.19 | 91 | 1008.2 |
| 20260505192935 | 57 | 18 | 2.0 | 4.0 | 0.00 | 1.19 | 1.19 | 91 | 1007.9 |
| 20260505192433 | 57 | 321 | 1.0 | 6.0 | 0.00 | 1.19 | 1.19 | 91 | 1007.1 |
| 20260505191931 | 57 | 96 | 4.0 | 6.0 | 0.00 | 1.19 | 1.19 | 92 | 1007.4 |
| 20260505191430 | 57 | 305 | 2.0 | 6.0 | 0.00 | 1.19 | 1.19 | 92 | 1008.1 |
| 20260505190926 | 57 | 195 | 2.0 | 3.0 | 0.00 | 1.19 | 1.19 | 92 | 1007.8 |
| 20260505190421 | 57 | 41 | 2.0 | 5.0 | 0.00 | 1.19 | 1.19 | 91 | 1007.8 |
| 20260505185916 | 57 | 311 | 2.0 | 4.0 | 0.00 | 1.19 | 1.19 | 91 | 1007.9 |
| 20260505185414 | 57 | 8 | 1.0 | 3.0 | 0.02 | 1.19 | 1.19 | 92 | 1007.9 |
| 20260505184910 | 58 | 33 | 1.0 | 5.0 | 0.02 | 1.19 | 1.19 | 91 | 1007.9 |
| 20260505184407 | 58 | 346 | 0.0 | 6.0 | 0.00 | 1.19 | 1.19 | 91 | 1007.4 |
| 20260505183904 | 58 | 356 | 2.0 | 6.0 | 0.02 | 1.19 | 1.19 | 90 | 1007.5 |
| 20260505183401 | 58 | 358 | 2.0 | 5.0 | 0.02 | 1.19 | 1.19 | 90 | 1007.5 |
| 20260505182857 | 59 | 9 | 5.0 | 11.0 | 0.00 | 1.18 | 1.18 | 89 | 1007.5 |
| 20260505182355 | 60 | 24 | 3.0 | 11.0 | 0.00 | 1.18 | 1.18 | 88 | 1007.5 |
| 20260505181851 | 61 | 97 | 3.0 | 5.0 | 0.00 | 1.18 | 1.18 | 88 | 1007.4 |
| 20260505181348 | 62 | 350 | 2.0 | 6.0 | 0.00 | 1.18 | 1.18 | 88 | 1007.2 |
| 20260505180845 | 64 | 71 | 3.0 | 4.0 | 0.00 | 1.18 | 1.18 | 91 | 1007.4 |
| 20260505180341 | 64 | 257 | 0.0 | 3.0 | 0.00 | 1.18 | 1.18 | 91 | 1007.1 |
| 20260505175838 | 64 | 298 | 1.0 | 2.0 | 0.00 | 1.18 | 1.18 | 91 | 1007.1 |
| 20260505175334 | 64 | 44 | 0.0 | 3.0 | 0.02 | 1.18 | 1.18 | 90 | 1006.8 |
| 20260505174831 | 64 | 293 | 2.0 | 4.0 | 0.02 | 1.18 | 1.18 | 90 | 1007.1 |
| 20260505174329 | 65 | 19 | 0.0 | 3.0 | 0.02 | 1.18 | 1.18 | 89 | 1007.3 |
| 20260505173824 | 65 | 65 | 3.0 | 4.0 | 0.00 | 1.18 | 1.18 | 89 | 1007.1 |
| 20260505173321 | 65 | 94 | 0.0 | 2.0 | 0.00 | 1.18 | 1.18 | 88 | 1007.1 |
| 20260505172818 | 65 | 87 | 1.0 | 2.0 | 0.00 | 1.18 | 1.18 | 88 | 1007.0 |
| 20260505172315 | 65 | 341 | 0.0 | 3.0 | 0.00 | 1.18 | 1.18 | 87 | 1007.1 |
| 20260505171810 | 66 | 49 | 1.0 | 2.0 | 0.00 | 1.18 | 1.18 | 87 | 1007.1 |
| 20260505171307 | 66 | 123 | 0.0 | 3.0 | 0.00 | 1.18 | 1.18 | 87 | 1007.0 |
| 20260505170758 | 66 | 80 | 2.0 | 4.0 | 0.00 | 1.18 | 1.18 | 87 | 1006.7 |
| 20260505170255 | 66 | 81 | 3.0 | 4.0 | 0.00 | 1.18 | 1.18 | 87 | 1006.8 |
| 20260505165750 | 67 | 43 | 2.0 | 2.0 | 0.00 | 1.18 | 1.18 | 86 | 1007.2 |
| 20260505165246 | 67 | 338 | 0.0 | 2.0 | 0.00 | 1.18 | 1.18 | 87 | 1007.1 |
| 20260505164742 | 66 | 102 | 2.0 | 5.0 | 0.00 | 1.18 | 1.18 | 86 | 1007.3 |
| 20260505164239 | 67 | 157 | 0.0 | 4.0 | 0.00 | 1.18 | 1.18 | 86 | 1007.0 |
| 20260505163737 | 67 | 44 | 0.0 | 2.0 | 0.00 | 1.18 | 1.18 | 86 | 1007.0 |
| 20260505163236 | 67 | 9 | 0.0 | 2.0 | 0.00 | 1.18 | 1.18 | 86 | 1007.2 |
| 20260505162732 | 67 | 257 | 2.0 | 2.0 | 0.00 | 1.18 | 1.18 | 85 | 1007.2 |
| 20260505162229 | 67 | 80 | 1.0 | 5.0 | 0.00 | 1.18 | 1.18 | 86 | 1007.1 |
| 20260505161726 | 66 | 155 | 1.0 | 4.0 | 0.00 | 1.18 | 1.18 | 86 | 1006.8 |
| 20260505161224 | 66 | 118 | 1.0 | 5.0 | 0.00 | 1.18 | 1.18 | 86 | 1006.9 |
| 20260505160721 | 66 | 114 | 4.0 | 6.0 | 0.00 | 1.18 | 1.18 | 86 | 1006.7 |
| 20260505160219 | 66 | 106 | 4.0 | 6.0 | 0.00 | 1.18 | 1.18 | 87 | 1006.7 |
| 20260505153158 | 66 | 234 | 1.0 | 5.0 | 0.00 | 1.18 | 1.18 | 87 | 1006.6 |
| 20260505152654 | 66 | 167 | 3.0 | 7.0 | 0.00 | 1.18 | 1.18 | 87 | 1006.3 |
| 20260505152150 | 65 | 153 | 3.0 | 5.0 | 0.00 | 1.18 | 1.18 | 88 | 1006.6 |
| 20260505151646 | 65 | 154 | 3.0 | 4.0 | 0.00 | 1.18 | 1.18 | 88 | 1006.6 |
| 20260505151143 | 65 | 113 | 2.0 | 7.0 | 0.00 | 1.18 | 1.18 | 87 | 1006.6 |
| 20260505150639 | 65 | 89 | 4.0 | 4.0 | 0.00 | 1.18 | 1.18 | 88 | 1006.9 |
| 20260505150137 | 65 | 153 | 3.0 | 6.0 | 0.00 | 1.18 | 1.18 | 88 | 1006.5 |
| 20260505140605 | 64 | 62 | 3.0 | 4.0 | 0.00 | 1.18 | 1.18 | 88 | 1007.2 |
| 20260505125019 | 61 | 130 | 1.0 | 6.0 | 0.00 | 1.18 | 1.18 | 93 | 1007.2 |
| 20260505124515 | 61 | 286 | 1.0 | 4.0 | 0.00 | 1.18 | 1.18 | 93 | 1007.2 |
| 20260505124012 | 61 | 178 | 2.0 | 3.0 | 0.00 | 1.18 | 1.18 | 93 | 1006.9 |
| 20260505123508 | 61 | 148 | 0.0 | 4.0 | 0.00 | 1.18 | 1.18 | 93 | 1006.8 |
| 20260505123004 | 61 | 149 | 2.0 | 6.0 | 0.00 | 1.18 | 1.18 | 93 | 1006.6 |
| 20260505122501 | 61 | 131 | 3.0 | 6.0 | 0.00 | 1.18 | 1.18 | 93 | 1006.7 |
| 20260505121958 | 61 | 352 | 2.0 | 4.0 | 0.00 | 1.18 | 1.18 | 93 | 1006.7 |
| 20260505121455 | 61 | 127 | 4.0 | 4.0 | 0.00 | 1.18 | 1.18 | 94 | 1006.9 |
| 20260505120951 | 60 | 50 | 0.0 | 5.0 | 0.00 | 1.18 | 1.18 | 94 | 1006.7 |
| 20260505120448 | 60 | 331 | 2.0 | 5.0 | 0.00 | 1.18 | 1.18 | 94 | 1006.6 |
| 20260505115946 | 60 | 140 | 4.0 | 4.0 | 0.00 | 1.18 | 1.18 | 94 | 1006.7 |
| 20260505115443 | 60 | 178 | 4.0 | 6.0 | 0.00 | 1.18 | 1.18 | 94 | 1006.3 |
| 20260505114942 | 60 | 150 | 3.0 | 4.0 | 0.00 | 1.18 | 1.18 | 94 | 1006.7 |
| 20260505114437 | 60 | 153 | 2.0 | 5.0 | 0.00 | 1.18 | 1.18 | 94 | 1006.6 |
| 20260505113934 | 60 | 148 | 2.0 | 4.0 | 0.00 | 1.18 | 1.18 | 94 | 1006.5 |
| 20260505113430 | 60 | 89 | 3.0 | 4.0 | 0.00 | 1.18 | 1.18 | 94 | 1006.5 |
| 20260505112926 | 60 | 155 | 2.0 | 4.0 | 0.00 | 1.18 | 1.18 | 94 | 1006.5 |
| 20260505112424 | 60 | 144 | 3.0 | 4.0 | 0.00 | 1.18 | 1.18 | 94 | 1006.4 |
| 20260505111920 | 60 | 133 | 3.0 | 5.0 | 0.00 | 1.18 | 1.18 | 94 | 1006.3 |
| 20260505111415 | 60 | 138 | 4.0 | 5.0 | 0.00 | 1.18 | 1.18 | 94 | 1006.4 |
| 20260505110911 | 60 | 129 | 4.0 | 5.0 | 0.00 | 1.18 | 1.18 | 94 | 1006.6 |
| 20260505110408 | 60 | 130 | 3.0 | 4.0 | 0.00 | 1.18 | 1.18 | 94 | 1006.5 |
| 20260505101839 | 60 | 78 | 3.0 | 5.0 | 0.00 | 1.18 | 1.18 | 95 | 1007.1 |
| 20260505101334 | 59 | 64 | 3.0 | 6.0 | 0.00 | 1.18 | 1.18 | 96 | 1007.2 |
| 20260505100830 | 59 | 116 | 4.0 | 5.0 | 0.00 | 1.18 | 1.18 | 96 | 1007.4 |
| 20260505100327 | 59 | 36 | 2.0 | 4.0 | 0.02 | 1.18 | 1.18 | 96 | 1007.5 |
| 20260505095822 | 59 | 73 | 3.0 | 4.0 | 0.00 | 1.17 | 1.17 | 96 | 1007.4 |
| 20260505095320 | 59 | 114 | 1.0 | 4.0 | 0.00 | 1.17 | 1.17 | 96 | 1007.2 |
| 20260505094816 | 59 | 59 | 2.0 | 3.0 | 0.00 | 1.17 | 1.17 | 96 | 1007.3 |
| 20260505094313 | 59 | 213 | 1.0 | 5.0 | 0.02 | 1.17 | 1.17 | 96 | 1007.5 |
| 20260505093814 | 59 | 146 | 0.0 | 2.0 | 0.05 | 1.17 | 1.17 | 96 | 1007.5 |
| 20260505093312 | 59 | 102 | 0.0 | 4.0 | 0.05 | 1.17 | 1.17 | 95 | 1007.6 |
| 20260505092808 | 59 | 262 | 0.0 | 4.0 | 0.02 | 1.16 | 1.16 | 95 | 1007.3 |
| 20260505092307 | 59 | 262 | 0.0 | 4.0 | 0.02 | 1.16 | 1.16 | 95 | 1007.3 |
| 20260505091804 | 59 | 140 | 3.0 | 3.0 | 0.02 | 1.15 | 1.15 | 95 | 1007.8 |
| 20260505091302 | 59 | 224 | 0.0 | 2.0 | 0.02 | 1.15 | 1.15 | 95 | 1007.5 |
| 20260505090759 | 60 | 77 | 0.0 | 2.0 | 0.02 | 1.15 | 1.15 | 95 | 1007.5 |
| 20260505090257 | 60 | 22 | 1.0 | 4.0 | 0.21 | 1.15 | 1.15 | 95 | 1007.4 |
| 20260505085754 | 60 | 179 | 2.0 | 5.0 | 0.40 | 1.14 | 1.14 | 95 | 1007.3 |
| 20260505085252 | 60 | 91 | 1.0 | 2.0 | 0.21 | 1.11 | 1.11 | 95 | 1007.6 |
| 20260505084749 | 60 | 310 | 2.0 | 3.0 | 0.00 | 1.07 | 1.07 | 95 | 1008.0 |
| 20260505084244 | 60 | 351 | 2.0 | 3.0 | 0.02 | 1.07 | 1.07 | 95 | 1007.8 |
| 20260505083740 | 60 | 129 | 2.0 | 3.0 | 0.02 | 1.07 | 1.07 | 95 | 1006.9 |
| 20260505083237 | 60 | 151 | 2.0 | 3.0 | 0.12 | 1.07 | 1.07 | 95 | 1007.4 |
| 20260505082732 | 60 | 188 | 2.0 | 2.0 | 0.50 | 1.03 | 1.03 | 94 | 1007.4 |
| 20260505082230 | 60 | 188 | 2.0 | 2.0 | 0.50 | 1.03 | 1.03 | 94 | 1007.4 |
| 20260505081726 | 60 | 70 | 2.0 | 3.0 | 0.76 | 1.00 | 1.00 | 94 | 1006.8 |
| 20260505081223 | 60 | 81 | 0.0 | 4.0 | 0.73 | 0.94 | 0.94 | 94 | 1006.8 |
| 20260505080720 | 60 | 93 | 0.0 | 3.0 | 0.54 | 0.87 | 0.87 | 94 | 1007.1 |
| 20260505080216 | 60 | 295 | 1.0 | 3.0 | 0.59 | 0.82 | 0.82 | 94 | 1007.2 |
| 20260505075712 | 60 | 120 | 0.0 | 3.0 | 0.69 | 0.72 | 0.72 | 93 | 1007.1 |
| 20260505075209 | 60 | 350 | 2.0 | 4.0 | 0.64 | 0.69 | 0.69 | 93 | 1007.6 |
| 20260505074706 | 61 | 331 | 2.0 | 9.0 | 0.80 | 0.64 | 0.64 | 92 | 1007.9 |
| 20260505074203 | 61 | 323 | 2.0 | 6.0 | 0.87 | 0.58 | 0.58 | 92 | 1007.8 |
| 20260505073701 | 61 | 106 | 3.0 | 8.0 | 0.73 | 0.51 | 0.51 | 91 | 1006.5 |
| 20260505073158 | 62 | 312 | 5.0 | 10.0 | 0.17 | 0.39 | 0.39 | 88 | 1007.1 |
| 20260505072654 | 62 | 312 | 5.0 | 10.0 | 0.17 | 0.39 | 0.39 | 88 | 1007.1 |
| 20260505072151 | 62 | 39 | 3.0 | 4.0 | 0.05 | 0.37 | 0.37 | 86 | 1005.7 |
| 20260505071646 | 62 | 12 | 2.0 | 2.0 | 0.17 | 0.36 | 0.36 | 86 | 1006.2 |
| 20260505071144 | 62 | 256 | 0.0 | 7.0 | 0.33 | 0.36 | 0.36 | 86 | 1005.5 |
| 20260505070641 | 61 | 66 | 1.0 | 1.0 | 0.26 | 0.30 | 0.30 | 89 | 1006.6 |
| 20260505070137 | 62 | 145 | 2.0 | 4.0 | 0.38 | 0.29 | 0.29 | 88 | 1006.1 |
| 20260505065633 | 62 | 145 | 2.0 | 4.0 | 0.38 | 0.29 | 0.29 | 88 | 1006.1 |
| 20260505065130 | 62 | 61 | 3.0 | 5.0 | 1.23 | 0.26 | 0.26 | 87 | 1006.6 |
| 20260505064627 | 63 | 109 | 4.0 | 7.0 | 1.06 | 0.22 | 0.22 | 86 | 1006.4 |
| 20260505064125 | 63 | 150 | 1.0 | 3.0 | 0.00 | 0.05 | 0.05 | 84 | 1007.3 |
| 20260505063623 | 64 | 101 | 1.0 | 3.0 | 0.07 | 0.05 | 0.05 | 81 | 1008.0 |
| 20260505063118 | 65 | 117 | 3.0 | 5.0 | 0.07 | 0.04 | 0.04 | 77 | 1006.7 |
| 20260505062615 | 65 | 117 | 3.0 | 5.0 | 0.07 | 0.04 | 0.04 | 77 | 1006.7 |
| 20260505062112 | 65 | 122 | 2.0 | 6.0 | 0.05 | 0.03 | 0.03 | 77 | 1006.6 |
| 20260505061609 | 65 | 111 | 3.0 | 4.0 | 0.02 | 0.02 | 0.02 | 77 | 1007.3 |
| 20260505061108 | 66 | 138 | 2.0 | 5.0 | 0.09 | 0.02 | 0.02 | 74 | 1007.6 |
| 20260505060605 | 66 | 69 | 0.0 | 2.0 | 0.09 | 0.02 | 0.02 | 72 | 1007.3 |
| 20260505055556 | 66 | 75 | 1.0 | 2.0 | 0.00 | 0.00 | 0.00 | 70 | 1007.9 |
| 20260505055053 | 66 | 175 | 1.0 | 4.0 | 0.00 | 0.00 | 0.00 | 69 | 1008.0 |
| 20260505054551 | 66 | 139 | 1.0 | 2.0 | 0.00 | 0.00 | 0.00 | 69 | 1007.7 |
| 20260505054049 | 66 | 133 | 3.0 | 4.0 | 0.00 | 0.00 | 0.00 | 69 | 1007.9 |
| 20260505053545 | 66 | 205 | 2.0 | 4.0 | 0.00 | 0.00 | 0.00 | 69 | 1008.0 |
| 20260505053042 | 66 | 148 | 2.0 | 3.0 | 0.00 | 0.00 | 0.00 | 69 | 1007.8 |
| 20260505052539 | 66 | 323 | 0.0 | 4.0 | 0.00 | 0.00 | 0.00 | 69 | 1007.8 |
| 20260505052037 | 66 | 325 | 0.0 | 3.0 | 0.00 | 0.00 | 0.00 | 69 | 1007.5 |
| 20260505051533 | 66 | 240 | 0.0 | 5.0 | 0.00 | 0.00 | 0.00 | 69 | 1007.6 |
| 20260505051032 | 66 | 111 | 2.0 | 4.0 | 0.00 | 0.00 | 0.00 | 69 | 1007.4 |
| 20260505050529 | 66 | 111 | 2.0 | 4.0 | 0.00 | 0.00 | 0.00 | 69 | 1007.4 |
| 20260505041457 | 65 | 103 | 0.0 | 4.0 | 0.00 | 0.00 | 0.00 | 72 | 1007.9 |
| 20260505040954 | 65 | 109 | 2.0 | 4.0 | 0.00 | 0.00 | 0.00 | 72 | 1007.9 |
| 20260505040452 | 65 | 110 | 1.0 | 2.0 | 0.00 | 0.00 | 0.00 | 71 | 1008.0 |
| 20260505035949 | 65 | 127 | 0.0 | 3.0 | 0.00 | 0.00 | 0.00 | 71 | 1008.2 |
| 20260505035444 | 66 | 106 | 0.0 | 2.0 | 0.00 | 0.00 | 0.00 | 71 | 1008.1 |
| 20260505034942 | 66 | 135 | 0.0 | 2.0 | 0.00 | 0.00 | 0.00 | 70 | 1008.0 |
| 20260505034438 | 66 | 88 | 2.0 | 4.0 | 0.00 | 0.00 | 0.00 | 70 | 1008.2 |
| 20260505033936 | 66 | 98 | 1.0 | 3.0 | 0.00 | 0.00 | 0.00 | 69 | 1008.1 |
| 20260505033432 | 67 | 68 | 1.0 | 2.0 | 0.00 | 0.00 | 0.00 | 69 | 1008.0 |
| 20260505032930 | 67 | 131 | 1.0 | 4.0 | 0.00 | 0.00 | 0.00 | 69 | 1008.3 |
| 20260505032427 | 67 | 122 | 2.0 | 3.0 | 0.00 | 0.00 | 0.00 | 69 | 1008.0 |
| 20260505031923 | 67 | 63 | 1.0 | 5.0 | 0.00 | 0.00 | 0.00 | 69 | 1008.4 |
| 20260505031421 | 67 | 129 | 2.0 | 3.0 | 0.00 | 0.00 | 0.00 | 69 | 1008.3 |
| 20260505030918 | 67 | 49 | 0.0 | 3.0 | 0.00 | 0.00 | 0.00 | 69 | 1008.3 |
| 20260505030413 | 67 | 74 | 2.0 | 2.0 | 0.00 | 0.00 | 0.00 | 69 | 1008.2 |
| 20260505025909 | 67 | 135 | 2.0 | 2.0 | 0.00 | 0.00 | 0.00 | 69 | 1008.5 |
| 20260505025407 | 67 | 112 | 2.0 | 4.0 | 0.00 | 0.00 | 0.00 | 69 | 1008.8 |
| 20260505024905 | 66 | 122 | 2.0 | 2.0 | 0.00 | 0.00 | 0.00 | 70 | 1008.4 |
| 20260505024403 | 66 | 120 | 2.0 | 2.0 | 0.00 | 0.00 | 0.00 | 69 | 1008.8 |
| 20260505023859 | 66 | 110 | 0.0 | 3.0 | 0.00 | 0.00 | 0.00 | 69 | 1008.3 |
| 20260505023356 | 67 | 114 | 2.0 | 2.0 | 0.00 | 0.00 | 0.00 | 69 | 1008.4 |
| 20260505022853 | 67 | 102 | 2.0 | 3.0 | 0.00 | 0.00 | 0.00 | 68 | 1008.1 |
| 20260505022350 | 67 | 93 | 1.0 | 2.0 | 0.00 | 0.00 | 0.00 | 68 | 1008.1 |
| 20260505021848 | 67 | 160 | 0.0 | 3.0 | 0.00 | 0.00 | 0.00 | 68 | 1008.2 |
| 20260505021344 | 67 | 170 | 1.0 | 3.0 | 0.00 | 0.00 | 0.00 | 67 | 1007.9 |
| 20260505020840 | 68 | 154 | 1.0 | 2.0 | 0.00 | 0.00 | 0.00 | 67 | 1008.0 |
| 20260505020335 | 68 | 97 | 1.0 | 2.0 | 0.00 | 0.00 | 0.00 | 66 | 1007.9 |
| 20260505015833 | 68 | 150 | 1.0 | 2.0 | 0.00 | 0.00 | 0.00 | 65 | 1007.6 |
| 20260505015330 | 69 | 103 | 1.0 | 2.0 | 0.00 | 0.00 | 0.00 | 65 | 1007.8 |
| 20260505014827 | 69 | 130 | 0.0 | 2.0 | 0.00 | 0.00 | 0.00 | 64 | 1007.5 |
| 20260505014324 | 69 | 129 | 1.0 | 3.0 | 0.00 | 0.00 | 0.00 | 64 | 1007.6 |
| 20260505013820 | 69 | 95 | 1.0 | 3.0 | 0.00 | 0.00 | 0.00 | 64 | 1007.6 |
| 20260505013318 | 69 | 136 | 1.0 | 3.0 | 0.00 | 0.00 | 0.00 | 64 | 1007.6 |
| 20260505012816 | 69 | 133 | 2.0 | 4.0 | 0.00 | 0.00 | 0.00 | 63 | 1007.6 |
| 20260505012314 | 69 | 97 | 1.0 | 2.0 | 0.00 | 0.00 | 0.00 | 62 | 1007.5 |
| 20260505011809 | 69 | 209 | 3.0 | 3.0 | 0.00 | 0.00 | 0.00 | 62 | 1007.6 |
| 20260505011307 | 70 | 108 | 2.0 | 2.0 | 0.00 | 0.00 | 0.00 | 62 | 1007.4 |
| 20260505010802 | 70 | 131 | 1.0 | 3.0 | 0.00 | 0.00 | 0.00 | 61 | 1007.2 |
| 20260505010258 | 70 | 135 | 2.0 | 2.0 | 0.00 | 0.00 | 0.00 | 60 | 1007.1 |
| 20260505005754 | 71 | 118 | 2.0 | 2.0 | 0.00 | 0.00 | 0.00 | 60 | 1007.1 |
| 20260505005252 | 71 | 132 | 2.0 | 4.0 | 0.00 | 0.00 | 0.00 | 59 | 1007.1 |
| 20260505004749 | 72 | 203 | 4.0 | 4.0 | 0.00 | 0.00 | 0.00 | 58 | 1007.1 |
| 20260505004245 | 72 | 143 | 2.0 | 4.0 | 0.00 | 0.00 | 0.00 | 57 | 1007.0 |
| 20260505003742 | 72 | 152 | 2.0 | 6.0 | 0.00 | 0.00 | 0.00 | 57 | 1007.2 |
| 20260505003240 | 72 | 136 | 0.0 | 7.0 | 0.00 | 0.00 | 0.00 | 57 | 1007.0 |
| 20260505002736 | 72 | 219 | 4.0 | 6.0 | 0.00 | 0.00 | 0.00 | 57 | 1007.3 |
| 20260505002234 | 73 | 218 | 2.0 | 5.0 | 0.00 | 0.00 | 0.00 | 57 | 1007.0 |
| 20260505001731 | 73 | 52 | 3.0 | 4.0 | 0.00 | 0.00 | 0.00 | 57 | 1007.2 |
| 20260505001229 | 73 | 194 | 10.0 | 14.0 | 0.00 | 0.00 | 0.00 | 55 | 1007.0 |
| 20260505000725 | 73 | 229 | 2.0 | 6.0 | 0.00 | 0.00 | 0.00 | 55 | 1007.3 |
| 20260505000226 | 74 | 137 | 5.0 | 7.0 | 0.00 | 0.00 | 0.00 | 55 | 1007.3 |
| 20260504235720 | 74 | 209 | 2.0 | 8.0 | 0.00 | 0.00 | 0.00 | 54 | 1007.1 |
| 20260504235215 | 74 | 212 | 5.0 | 8.0 | 0.00 | 0.00 | 0.00 | 53 | 1006.9 |
| 20260504234713 | 75 | 183 | 2.0 | 11.0 | 0.00 | 0.00 | 0.00 | 53 | 1007.2 |
| 20260504234210 | 75 | 65 | 4.0 | 17.0 | 0.00 | 0.00 | 0.00 | 52 | 1007.3 |
| 20260504233706 | 77 | 253 | 8.0 | 10.0 | 0.00 | 0.00 | 0.00 | 50 | 1007.0 |
| 20260504233203 | 77 | 174 | 4.0 | 6.0 | 0.00 | 0.00 | 0.00 | 50 | 1007.2 |
| 20260504232700 | 77 | 166 | 2.0 | 9.0 | 0.00 | 0.00 | 0.00 | 51 | 1007.0 |
| 20260504232157 | 77 | 241 | 2.0 | 9.0 | 0.00 | 0.00 | 0.00 | 51 | 1007.0 |
| 20260504231653 | 77 | 244 | 3.0 | 6.0 | 0.00 | 0.00 | 0.00 | 50 | 1007.1 |
| 20260504231150 | 77 | 143 | 3.0 | 16.0 | 0.00 | 0.00 | 0.00 | 50 | 1006.9 |
| 20260504230646 | 78 | 209 | 4.0 | 7.0 | 0.00 | 0.00 | 0.00 | 48 | 1007.2 |
| 20260504230145 | 78 | 209 | 4.0 | 7.0 | 0.00 | 0.00 | 0.00 | 48 | 1007.2 |
| 20260504225643 | 78 | 214 | 4.0 | 11.0 | 0.00 | 0.00 | 0.00 | 48 | 1007.0 |
| 20260504225138 | 78 | 233 | 3.0 | 10.0 | 0.00 | 0.00 | 0.00 | 48 | 1007.1 |
| 20260504224636 | 79 | 163 | 4.0 | 10.0 | 0.00 | 0.00 | 0.00 | 48 | 1006.8 |
| 20260504224132 | 79 | 236 | 4.0 | 11.0 | 0.00 | 0.00 | 0.00 | 48 | 1007.1 |